Showing default

YUNYAO-1 46, 63347

Orbit data source: Space-Track

YUNYAO-1 46, 63347 is a payload satellite owned by Yunyao yuhang (CN) in SSO that was launched on Fri, 21 Mar 2025 UTC via a GUSHENXING 1 launch vehicle from the Jiuquan Satellite Launch Center, China (JSC). Payload-class satellites include a variety of spacecraft equipped with specific instruments for various scientific and technological missions. These include communications satellites like Starlink; space stations such as the ISS; scientific satellites like the Hubble; Earth observation satellites from companies like Planet Labs, Umbra, and HawkEye 360; GPS; miniature CubeSats for education and research; and military/defense satellites.

Loading next visibility...
Identifier
63347, 2025-059D
Orbit
SSO
Country
Flag of CNCN / PRC
Related business
Manufacturer
Changguang WJ
Mission
Operational Commercial Meteo Radio Occ.
Bus & Motor
YY-1, Unknown motor
Mass
~50 kg wet, ~50 kg dry
Launch date (UTC)
2025-03-21 (11 months ago)
Launch vehicle
GUSHENXING 1
Launch site
Jiuquan Satellite Launch Center, China (JSC)
Object type
Payload
Rocket body
Debris
Shape & HBR
Box + 1 Pan, 0.6 m
Radar Cross Section
5.339 m², Medium (>0.1 m² and < 1m²)

Expand to show TLE details & history
Last TLE update: 5 hours ago

TLE from 5 hours ago
0 YUNYAO-1 46
1 63347U 25059D   26037.20226656  .00007175  00000-0  44458-3 0  9999
2 63347  97.6054 219.3816 0011245 232.4199 127.6009 15.10018627 48524
Epoch: 2026-02-06T04:51Z
TLE epoch observation values (Epoch: 2026-02-06T04:51:15.830Z)
Latitude
-0.0001°
Longitude
10.22213°
Altitude
543.965 km
Speed
7.588 km/s
True Right ascension
14h 37m 31s
True Declination
0° 00' 00"
Sunlit
Object was in daylight at epoch
Visualization orbit readout
Latitude
Unknown
Longitude
Unknown
Altitude
Unknown
Speed
Unknown
Apparent Right ascension
Unknown
Apparent Declination
Unknown
Sunlit
N/A
Visualization observer readout
Local Sidereal Time
11:52:33
Azimuth
Unknown
Elevation
Unknown
Doppler factor
Unknown
Orbital elements
Apogee altitude
540.903 km
Perigee altitude
525.359 km
Semi-major axis
6,911.268 km
Eccentricity
0.00112
Inclination
97.6054°
RAAN
219.3816°
Arg. of periapsis
232.4199°
True anomaly
127.7029°
Mean anomaly
127.6009°
Eccentric anomaly
127.65191°
Mean motion
3.77752 °/min
Orbital period
95.3 mins
BSTAR
0.00044458
Loading maneuver chart data...
Computing Atmospheric mass density...
Loading historical data...
Loading historical data...
Loading historical data...
Loading historical data...
Loading historical data...
Loading historical data...
Loading historical data...
Other satellites on launch #59 in the year 2025 (2025-03-21 UTC)

Documentation

Showing up to 5 results
|